Location: Regona
(45.2000°N, 9.8167°E)
Time: 12:27:59
(UTC+00:00)

Meteor 1-11 - Pass Details

Date: 07 June 2020
Orbit: 842 x 885 km, 81.2° (Epoch: 01 July)

Event Time Altitude Azimuth Distance (km) Brightness Sun altitude
Exits shadow 01:03:55 31° 212° (SSW) 1,444 4.8 -18.0°
Maximum altitude 01:06:34 64° 283° (WNW) 936 4.3 -17.8°
Drops below altitude 10° 01:12:08 10° 5° (N) 2,473 7.7 -17.3°
Sets 01:14:35 0° 9° (N) 3,413 8.7 -17.2°
